Location: Pella
(41.4080°N, 92.9160°W)
Time: 00:29:12
(UTC-05:00)

ATLAS 5 CENTAUR R/B - Visible Passes

Search period start: 16 April 2014 00:00
Search period end: 26 April 2014 00:00
Orbit: 415 x 429 km, 35.7° (Epoch: 15 April)

Date Brightness Start Highest point End Pass type
(mag) Time Alt. Az. Time Alt. Az. Time Alt. Az.
16 Apr 2.3 04:55:52 31° S 04:55:57 31° S 04:59:01 10° ESE visible
17 Apr 3.8 04:10:11 15° ESE 04:10:11 15° ESE 04:10:56 10° ESE visible
17 Apr 2.6 05:43:08 13° WSW 05:45:35 26° S 05:48:29 10° SE visible
18 Apr 2.4 04:57:27 28° S 04:57:28 28° S 05:00:26 10° SE visible
19 Apr 3.9 04:11:47 13° SE 04:11:47 13° SE 04:12:16 10° ESE visible
19 Apr 3.1 05:44:45 11° WSW 05:46:49 17° SSW 05:49:04 10° SSE visible
20 Apr 3.0 04:59:08 19° S 04:59:08 19° S 05:01:05 10° SSE visible
